Year,Month,Day,Hour,Minute,Value (Times are PST for temperature in C)
2017,08,03,00,00,23.70
2017,08,03,00,01,23.70
2017,08,03,00,02,23.60
2017,08,03,00,03,23.60
2017,08,03,00,04,23.60
2017,08,03,00,05,23.60
2017,08,03,00,06,23.60
2017,08,03,00,07,23.50
2017,08,03,00,08,23.50
2017,08,03,00,09,23.50
2017,08,03,00,10,23.50
2017,08,03,00,11,23.50
2017,08,03,00,12,23.40
2017,08,03,00,13,23.40
2017,08,03,00,14,23.40
2017,08,03,00,15,23.40
2017,08,03,00,16,23.30
2017,08,03,00,17,23.30
2017,08,03,00,18,23.30
2017,08,03,00,19,23.30
2017,08,03,00,20,23.20
2017,08,03,00,21,23.20
2017,08,03,00,22,23.20
2017,08,03,00,23,23.10
2017,08,03,00,24,23.10
2017,08,03,00,25,23.10
2017,08,03,00,26,23.10
2017,08,03,00,27,23.00
2017,08,03,00,28,23.00
2017,08,03,00,29,22.90
2017,08,03,00,30,22.90
2017,08,03,00,31,22.90
2017,08,03,00,32,22.90
2017,08,03,00,33,22.90
2017,08,03,00,34,22.90
2017,08,03,00,35,22.90
2017,08,03,00,36,22.90
2017,08,03,00,37,22.90
2017,08,03,00,38,22.90
2017,08,03,00,39,22.90
2017,08,03,00,40,22.90
2017,08,03,00,41,22.90
2017,08,03,00,42,22.90
2017,08,03,00,43,22.90
2017,08,03,00,44,22.90
2017,08,03,00,45,22.90
2017,08,03,00,46,22.90
2017,08,03,00,47,22.90
2017,08,03,00,48,22.90
2017,08,03,00,49,22.80
2017,08,03,00,50,22.80
2017,08,03,00,51,22.80
2017,08,03,00,52,22.70
2017,08,03,00,53,22.70
2017,08,03,00,54,22.70
2017,08,03,00,55,22.70
2017,08,03,00,56,22.60
2017,08,03,00,57,22.60
2017,08,03,00,58,22.60
2017,08,03,00,59,22.60
2017,08,03,01,00,22.50
2017,08,03,01,01,22.50
2017,08,03,01,02,22.50
2017,08,03,01,03,22.40
2017,08,03,01,04,22.40
2017,08,03,01,05,22.40
2017,08,03,01,06,22.30
2017,08,03,01,07,22.30
2017,08,03,01,08,22.30
2017,08,03,01,09,22.30
2017,08,03,01,10,22.30
2017,08,03,01,11,22.30
2017,08,03,01,12,22.20
2017,08,03,01,13,22.20
2017,08,03,01,14,22.20
2017,08,03,01,15,22.10
2017,08,03,01,16,22.10
2017,08,03,01,17,22.10
2017,08,03,01,18,22.10
2017,08,03,01,19,22.00
2017,08,03,01,20,22.00
2017,08,03,01,21,21.90
2017,08,03,01,22,21.90
2017,08,03,01,23,21.90
2017,08,03,01,24,21.90
2017,08,03,01,25,21.90
2017,08,03,01,26,21.90
2017,08,03,01,27,21.90
2017,08,03,01,28,21.80
2017,08,03,01,29,21.80
2017,08,03,01,30,21.80
2017,08,03,01,31,21.80
2017,08,03,01,32,21.80
2017,08,03,01,33,21.70
2017,08,03,01,34,21.70
2017,08,03,01,35,21.70
2017,08,03,01,36,21.70
2017,08,03,01,37,21.60
2017,08,03,01,38,21.60
2017,08,03,01,39,21.60
2017,08,03,01,40,21.60
2017,08,03,01,41,21.60
2017,08,03,01,42,21.50
2017,08,03,01,43,21.50
2017,08,03,01,44,21.40
2017,08,03,01,45,21.40
2017,08,03,01,46,21.40
2017,08,03,01,47,21.30
2017,08,03,01,48,21.30
2017,08,03,01,49,21.30
2017,08,03,01,50,21.30
2017,08,03,01,51,21.20
2017,08,03,01,52,21.20
2017,08,03,01,53,21.20
2017,08,03,01,54,21.20
2017,08,03,01,55,21.20
2017,08,03,01,56,21.20
2017,08,03,01,57,21.20
2017,08,03,01,58,21.20
2017,08,03,01,59,21.20
2017,08,03,02,00,21.20
2017,08,03,02,01,21.20
2017,08,03,02,02,21.20
2017,08,03,02,03,21.20
2017,08,03,02,04,21.20
2017,08,03,02,05,21.10
2017,08,03,02,06,21.10
2017,08,03,02,07,21.10
2017,08,03,02,08,21.10
2017,08,03,02,09,21.10
2017,08,03,02,10,21.10
2017,08,03,02,11,21.10
2017,08,03,02,12,21.10
2017,08,03,02,13,21.00
2017,08,03,02,14,21.00
2017,08,03,02,15,21.00
2017,08,03,02,16,21.00
2017,08,03,02,17,21.00
2017,08,03,02,18,21.00
2017,08,03,02,19,21.00
2017,08,03,02,20,21.00
2017,08,03,02,21,21.00
2017,08,03,02,22,20.90
2017,08,03,02,23,20.90
2017,08,03,02,24,20.90
2017,08,03,02,25,20.80
2017,08,03,02,26,20.80
2017,08,03,02,27,20.80
2017,08,03,02,28,20.80
2017,08,03,02,29,20.80
2017,08,03,02,30,20.80
2017,08,03,02,31,20.90
2017,08,03,02,32,20.90
2017,08,03,02,33,20.90
2017,08,03,02,34,20.90
2017,08,03,02,35,20.90
2017,08,03,02,36,20.90
2017,08,03,02,37,20.80
2017,08,03,02,38,20.80
2017,08,03,02,39,20.80
2017,08,03,02,40,20.80
2017,08,03,02,41,20.80
2017,08,03,02,42,20.80
2017,08,03,02,43,20.70
2017,08,03,02,44,20.70
2017,08,03,02,45,20.70
2017,08,03,02,46,20.70
2017,08,03,02,47,20.70
2017,08,03,02,48,20.70
2017,08,03,02,49,20.70
2017,08,03,02,50,20.70
2017,08,03,02,51,20.70
2017,08,03,02,52,20.70
2017,08,03,02,53,20.70
2017,08,03,02,54,20.70
2017,08,03,02,55,20.70
2017,08,03,02,56,20.70
2017,08,03,02,57,20.70
2017,08,03,02,58,20.70
2017,08,03,02,59,20.70
2017,08,03,03,00,20.70
2017,08,03,03,01,20.60
2017,08,03,03,02,20.60
2017,08,03,03,03,20.60
2017,08,03,03,04,20.60
2017,08,03,03,05,20.60
2017,08,03,03,06,20.50
2017,08,03,03,07,20.50
2017,08,03,03,08,20.50
2017,08,03,03,09,20.50
2017,08,03,03,10,20.40
2017,08,03,03,11,20.40
2017,08,03,03,12,20.40
2017,08,03,03,13,20.40
2017,08,03,03,14,20.40
2017,08,03,03,15,20.40
2017,08,03,03,16,20.40
2017,08,03,03,17,20.40
2017,08,03,03,18,20.40
2017,08,03,03,19,20.30
2017,08,03,03,20,20.30
2017,08,03,03,21,20.30
2017,08,03,03,22,20.30
2017,08,03,03,23,20.30
2017,08,03,03,24,20.30
2017,08,03,03,25,20.20
2017,08,03,03,26,20.20
2017,08,03,03,27,20.20
2017,08,03,03,28,20.20
2017,08,03,03,29,20.20
2017,08,03,03,30,20.10
2017,08,03,03,31,20.10
2017,08,03,03,32,20.10
2017,08,03,03,33,20.10
2017,08,03,03,34,20.10
2017,08,03,03,35,20.10
2017,08,03,03,36,20.10
2017,08,03,03,37,20.10
2017,08,03,03,38,20.10
2017,08,03,03,39,20.10
2017,08,03,03,40,20.20
2017,08,03,03,41,20.20
2017,08,03,03,42,20.20
2017,08,03,03,43,20.20
2017,08,03,03,44,20.10
2017,08,03,03,45,20.10
2017,08,03,03,46,20.10
2017,08,03,03,47,20.10
2017,08,03,03,48,20.10
2017,08,03,03,49,20.10
2017,08,03,03,50,20.10
2017,08,03,03,51,20.00
2017,08,03,03,52,20.00
2017,08,03,03,53,20.00
2017,08,03,03,54,20.00
2017,08,03,03,55,20.00
2017,08,03,03,56,20.00
2017,08,03,03,57,20.00
2017,08,03,03,58,20.00
2017,08,03,03,59,20.00
2017,08,03,04,00,19.90
2017,08,03,04,01,19.90
2017,08,03,04,02,19.90
2017,08,03,04,03,19.90
2017,08,03,04,04,19.90
2017,08,03,04,05,19.90
2017,08,03,04,06,19.80
2017,08,03,04,07,19.80
2017,08,03,04,08,19.80
2017,08,03,04,09,19.80
2017,08,03,04,10,19.80
2017,08,03,04,11,19.80
2017,08,03,04,12,19.80
2017,08,03,04,13,19.80
2017,08,03,04,14,19.80
2017,08,03,04,15,19.80
2017,08,03,04,16,19.80
2017,08,03,04,17,19.80
2017,08,03,04,18,19.80
2017,08,03,04,19,19.80
2017,08,03,04,20,19.80
2017,08,03,04,21,19.80
2017,08,03,04,22,19.80
2017,08,03,04,23,19.70
2017,08,03,04,24,19.70
2017,08,03,04,25,19.70
2017,08,03,04,26,19.70
2017,08,03,04,27,19.60
2017,08,03,04,28,19.60
2017,08,03,04,29,19.60
2017,08,03,04,30,19.50
2017,08,03,04,31,19.50
2017,08,03,04,32,19.40
2017,08,03,04,33,19.40
2017,08,03,04,34,19.40
2017,08,03,04,35,19.30
2017,08,03,04,36,19.20
2017,08,03,04,37,19.20
2017,08,03,04,38,19.00
2017,08,03,04,39,19.00
2017,08,03,04,40,18.90
2017,08,03,04,41,18.80
2017,08,03,04,42,18.80
2017,08,03,04,43,18.80
2017,08,03,04,44,18.70
2017,08,03,04,45,18.70
2017,08,03,04,46,18.60
2017,08,03,04,47,18.60
2017,08,03,04,48,18.60
2017,08,03,04,49,18.50
2017,08,03,04,50,18.50
2017,08,03,04,51,18.40
2017,08,03,04,52,18.40
2017,08,03,04,53,18.40
2017,08,03,04,54,18.40
2017,08,03,04,55,18.40
2017,08,03,04,56,18.30
2017,08,03,04,57,18.30
2017,08,03,04,58,18.30
2017,08,03,04,59,18.30
2017,08,03,05,00,18.30
2017,08,03,05,01,18.30
2017,08,03,05,02,18.40
2017,08,03,05,03,18.40
2017,08,03,05,04,18.40
2017,08,03,05,05,18.40
2017,08,03,05,06,18.40
2017,08,03,05,07,18.40
2017,08,03,05,08,18.50
2017,08,03,05,09,18.50
2017,08,03,05,10,18.50
2017,08,03,05,11,18.50
2017,08,03,05,12,18.60
2017,08,03,05,13,18.60
2017,08,03,05,14,18.60
2017,08,03,05,15,18.60
2017,08,03,05,16,18.60
2017,08,03,05,17,18.60
2017,08,03,05,18,18.70
2017,08,03,05,19,18.70
2017,08,03,05,20,18.70
2017,08,03,05,21,18.70
2017,08,03,05,22,18.70
2017,08,03,05,23,18.70
2017,08,03,05,24,18.70
2017,08,03,05,25,18.70
2017,08,03,05,26,18.70
2017,08,03,05,27,18.70
2017,08,03,05,28,18.80
2017,08,03,05,29,18.80
2017,08,03,05,30,18.80
2017,08,03,05,31,18.80
2017,08,03,05,32,18.80
2017,08,03,05,33,18.80
2017,08,03,05,34,18.80
2017,08,03,05,35,18.80
2017,08,03,05,36,18.80
2017,08,03,05,37,18.80
2017,08,03,05,38,18.80
2017,08,03,05,39,18.80
2017,08,03,05,40,18.80
2017,08,03,05,41,18.80
2017,08,03,05,42,18.80
2017,08,03,05,43,18.80
2017,08,03,05,44,18.70
2017,08,03,05,45,18.70
2017,08,03,05,46,18.70
2017,08,03,05,47,18.70
2017,08,03,05,48,18.70
2017,08,03,05,49,18.70
2017,08,03,05,50,18.70
2017,08,03,05,51,18.70
2017,08,03,05,52,18.80
2017,08,03,05,53,18.80
2017,08,03,05,54,18.80
2017,08,03,05,55,18.80
2017,08,03,05,56,18.80
2017,08,03,05,57,18.80
2017,08,03,05,58,18.80
2017,08,03,05,59,18.80
2017,08,03,06,00,18.80
2017,08,03,06,01,18.80
2017,08,03,06,02,18.90
2017,08,03,06,03,18.90
2017,08,03,06,04,18.90
2017,08,03,06,05,18.90
2017,08,03,06,06,18.90
2017,08,03,06,07,19.00
2017,08,03,06,08,19.00
2017,08,03,06,09,19.00
2017,08,03,06,10,19.00
2017,08,03,06,11,19.10
2017,08,03,06,12,19.10
2017,08,03,06,13,19.10
2017,08,03,06,14,19.10
2017,08,03,06,15,19.10
2017,08,03,06,16,19.10
2017,08,03,06,17,19.10
2017,08,03,06,18,19.10
2017,08,03,06,19,19.10
2017,08,03,06,20,19.20
2017,08,03,06,21,19.20
2017,08,03,06,22,19.20
2017,08,03,06,23,19.20
2017,08,03,06,24,19.20
2017,08,03,06,25,19.30
2017,08,03,06,26,19.30
2017,08,03,06,27,19.30
2017,08,03,06,28,19.30
2017,08,03,06,29,19.30
2017,08,03,06,30,19.30
2017,08,03,06,31,19.30
2017,08,03,06,32,19.30
2017,08,03,06,33,19.30
2017,08,03,06,34,19.30
2017,08,03,06,35,19.30
2017,08,03,06,36,19.20
2017,08,03,06,37,19.10
2017,08,03,06,38,19.00
2017,08,03,06,39,18.90
2017,08,03,06,40,18.80
2017,08,03,06,41,18.80
2017,08,03,06,42,18.70
2017,08,03,06,43,18.70
2017,08,03,06,44,18.60
2017,08,03,06,45,18.60
2017,08,03,06,46,18.50
2017,08,03,06,47,18.50
2017,08,03,06,48,18.40
2017,08,03,06,49,18.40
2017,08,03,06,50,18.40
2017,08,03,06,51,18.30
2017,08,03,06,52,18.30
2017,08,03,06,53,18.30
2017,08,03,06,54,18.20
2017,08,03,06,55,18.20
2017,08,03,06,56,18.10
2017,08,03,06,57,18.10
2017,08,03,06,58,18.10
2017,08,03,06,59,18.00
2017,08,03,07,00,18.00
2017,08,03,07,01,17.90
2017,08,03,07,02,17.90
2017,08,03,07,03,17.90
2017,08,03,07,04,17.90
2017,08,03,07,05,17.90
2017,08,03,07,06,17.90
2017,08,03,07,07,17.90
2017,08,03,07,08,17.90
2017,08,03,07,09,17.90
2017,08,03,07,10,17.90
2017,08,03,07,11,18.00
2017,08,03,07,12,18.00
2017,08,03,07,13,18.00
2017,08,03,07,14,18.10
2017,08,03,07,15,18.10
2017,08,03,07,16,18.20
2017,08,03,07,17,18.30
2017,08,03,07,18,18.30
2017,08,03,07,19,18.30
2017,08,03,07,20,18.40
2017,08,03,07,21,18.50
2017,08,03,07,22,18.50
2017,08,03,07,23,18.60
2017,08,03,07,24,18.70
2017,08,03,07,25,18.70
2017,08,03,07,26,18.80
2017,08,03,07,27,18.80
2017,08,03,07,28,18.90
2017,08,03,07,29,19.00
2017,08,03,07,30,19.00
2017,08,03,07,31,19.10
2017,08,03,07,32,19.20
2017,08,03,07,33,19.20
2017,08,03,07,34,19.30
2017,08,03,07,35,19.30
2017,08,03,07,36,19.30
2017,08,03,07,37,19.40
2017,08,03,07,38,19.40
2017,08,03,07,39,19.40
2017,08,03,07,40,19.40
2017,08,03,07,41,19.50
2017,08,03,07,42,19.60
2017,08,03,07,43,19.70
2017,08,03,07,44,19.70
2017,08,03,07,45,19.80
2017,08,03,07,46,19.80
2017,08,03,07,47,19.90
2017,08,03,07,48,19.90
2017,08,03,07,49,20.00
2017,08,03,07,50,20.00
2017,08,03,07,51,20.10
2017,08,03,07,52,20.10
2017,08,03,07,53,20.20
2017,08,03,07,54,20.20
2017,08,03,07,55,20.30
2017,08,03,07,56,20.40
2017,08,03,07,57,20.40
2017,08,03,07,58,20.50
2017,08,03,07,59,20.60
2017,08,03,08,00,20.60
2017,08,03,08,01,20.60
2017,08,03,08,02,20.70
2017,08,03,08,03,20.80
2017,08,03,08,04,20.90
2017,08,03,08,05,21.00
2017,08,03,08,06,21.00
2017,08,03,08,07,21.10
2017,08,03,08,08,21.10
2017,08,03,08,09,21.10
2017,08,03,08,10,21.10
2017,08,03,08,11,21.20
2017,08,03,08,12,21.20
2017,08,03,08,13,21.20
2017,08,03,08,14,21.20
2017,08,03,08,15,21.20
2017,08,03,08,16,21.30
2017,08,03,08,17,21.30
2017,08,03,08,18,21.30
2017,08,03,08,19,21.30
2017,08,03,08,20,21.40
2017,08,03,08,21,21.40
2017,08,03,08,22,21.50
2017,08,03,08,23,21.50
2017,08,03,08,24,21.60
2017,08,03,08,25,21.60
2017,08,03,08,26,21.70
2017,08,03,08,27,21.70
2017,08,03,08,28,21.80
2017,08,03,08,29,21.80
2017,08,03,08,30,21.90
2017,08,03,08,31,21.90
2017,08,03,08,32,21.90
2017,08,03,08,33,21.90
2017,08,03,08,34,22.00
2017,08,03,08,35,22.00
2017,08,03,08,36,22.00
2017,08,03,08,37,22.10
2017,08,03,08,38,22.10
2017,08,03,08,39,22.10
2017,08,03,08,40,22.10
2017,08,03,08,41,22.20
2017,08,03,08,42,22.20
2017,08,03,08,43,22.20
2017,08,03,08,44,22.30
2017,08,03,08,45,22.30
2017,08,03,08,46,22.30
2017,08,03,08,47,22.30
2017,08,03,08,48,22.40
2017,08,03,08,49,22.40
2017,08,03,08,50,22.40
2017,08,03,08,51,22.40
2017,08,03,08,52,22.50
2017,08,03,08,53,22.50
2017,08,03,08,54,22.60
2017,08,03,08,55,22.60
2017,08,03,08,56,22.70
2017,08,03,08,57,22.70
2017,08,03,08,58,22.70
2017,08,03,08,59,22.80
2017,08,03,09,00,22.80
2017,08,03,09,01,22.80
2017,08,03,09,02,22.90
2017,08,03,09,03,22.90
2017,08,03,09,04,22.90
2017,08,03,09,05,23.00
2017,08,03,09,06,23.00
2017,08,03,09,07,23.10
2017,08,03,09,08,23.10
2017,08,03,09,09,23.10
2017,08,03,09,10,23.20
2017,08,03,09,11,23.20
2017,08,03,09,12,23.30
2017,08,03,09,13,23.30
2017,08,03,09,14,23.30
2017,08,03,09,15,23.30
2017,08,03,09,16,23.30
2017,08,03,09,17,23.40
2017,08,03,09,18,23.40
2017,08,03,09,19,23.40
2017,08,03,09,20,23.40
2017,08,03,09,21,23.50
2017,08,03,09,22,23.50
2017,08,03,09,23,23.60
2017,08,03,09,24,23.60
2017,08,03,09,25,23.60
2017,08,03,09,26,23.70
2017,08,03,09,27,23.80
2017,08,03,09,28,23.80
2017,08,03,09,29,24.00
2017,08,03,09,30,24.10
2017,08,03,09,31,24.10
2017,08,03,09,32,24.20
2017,08,03,09,33,24.20
2017,08,03,09,34,24.30
2017,08,03,09,35,24.30
2017,08,03,09,36,24.40
2017,08,03,09,37,24.40
2017,08,03,09,38,24.40
2017,08,03,09,39,24.40
2017,08,03,09,40,24.40
2017,08,03,09,41,24.40
2017,08,03,09,42,24.40
2017,08,03,09,43,24.40
2017,08,03,09,44,24.40
2017,08,03,09,45,24.40
2017,08,03,09,46,24.50
2017,08,03,09,47,24.50
2017,08,03,09,48,24.60
2017,08,03,09,49,24.60
2017,08,03,09,50,24.60
2017,08,03,09,51,24.70
2017,08,03,09,52,24.70
2017,08,03,09,53,24.70
2017,08,03,09,54,24.70
2017,08,03,09,55,24.70
2017,08,03,09,56,24.70
2017,08,03,09,57,24.80
2017,08,03,09,58,24.80
2017,08,03,09,59,24.80
2017,08,03,10,00,24.90
2017,08,03,10,01,24.90
2017,08,03,10,02,25.10
2017,08,03,10,03,25.10
2017,08,03,10,04,25.20
2017,08,03,10,05,25.30
2017,08,03,10,06,25.30
2017,08,03,10,07,25.20
2017,08,03,10,08,25.20
2017,08,03,10,09,25.30
2017,08,03,10,10,25.30
2017,08,03,10,11,25.40
2017,08,03,10,12,25.40
2017,08,03,10,13,25.40
2017,08,03,10,14,25.50
2017,08,03,10,15,25.50
2017,08,03,10,16,25.60
2017,08,03,10,17,25.60
2017,08,03,10,18,25.70
2017,08,03,10,19,25.90
2017,08,03,10,20,25.90
2017,08,03,10,21,26.00
2017,08,03,10,22,26.00
2017,08,03,10,23,26.10
2017,08,03,10,24,26.10
2017,08,03,10,25,26.10
2017,08,03,10,26,26.20
2017,08,03,10,27,26.20
2017,08,03,10,28,26.30
2017,08,03,10,29,26.30
2017,08,03,10,30,26.30
2017,08,03,10,31,26.40
2017,08,03,10,32,26.70
2017,08,03,10,33,26.80
2017,08,03,10,34,26.90
2017,08,03,10,35,27.00
2017,08,03,10,36,27.10
2017,08,03,10,37,27.20
2017,08,03,10,38,27.20
2017,08,03,10,39,27.20
2017,08,03,10,40,27.20
2017,08,03,10,41,27.30
2017,08,03,10,42,27.30
2017,08,03,10,43,27.30
2017,08,03,10,44,27.40
2017,08,03,10,45,27.50
2017,08,03,10,46,27.60
2017,08,03,10,47,27.70
2017,08,03,10,48,27.70
2017,08,03,10,49,27.80
2017,08,03,10,50,27.80
2017,08,03,10,51,27.80
2017,08,03,10,52,27.80
2017,08,03,10,53,27.80
2017,08,03,10,54,27.80
2017,08,03,10,55,27.90
2017,08,03,10,56,27.90
2017,08,03,10,57,27.90
2017,08,03,10,58,27.80
2017,08,03,10,59,27.80
2017,08,03,11,00,27.80
2017,08,03,11,01,27.80
2017,08,03,11,02,27.90
2017,08,03,11,03,27.90
2017,08,03,11,04,28.00
2017,08,03,11,05,28.10
2017,08,03,11,06,28.10
2017,08,03,11,07,28.20
2017,08,03,11,08,28.20
2017,08,03,11,09,28.20
2017,08,03,11,10,28.30
2017,08,03,11,11,28.30
2017,08,03,11,12,28.40
2017,08,03,11,13,28.60
2017,08,03,11,14,28.60
2017,08,03,11,15,28.70
2017,08,03,11,16,28.70
2017,08,03,11,17,28.70
2017,08,03,11,18,28.80
2017,08,03,11,19,28.90
2017,08,03,11,20,28.90
2017,08,03,11,21,29.00
2017,08,03,11,22,29.10
2017,08,03,11,23,29.10
2017,08,03,11,24,29.20
2017,08,03,11,25,29.30
2017,08,03,11,26,29.40
2017,08,03,11,27,29.50
2017,08,03,11,28,29.60
2017,08,03,11,29,29.60
2017,08,03,11,30,29.60
2017,08,03,11,31,29.60
2017,08,03,11,32,29.70
2017,08,03,11,33,29.70
2017,08,03,11,34,29.80
2017,08,03,11,35,29.80
2017,08,03,11,36,29.90
2017,08,03,11,37,30.00
2017,08,03,11,38,30.00
2017,08,03,11,39,30.10
2017,08,03,11,40,30.10
2017,08,03,11,41,30.10
2017,08,03,11,42,30.10
2017,08,03,11,43,30.10
2017,08,03,11,44,30.10
2017,08,03,11,45,30.20
2017,08,03,11,46,30.20
2017,08,03,11,47,30.20
2017,08,03,11,48,30.20
2017,08,03,11,49,30.20
2017,08,03,11,50,30.20
2017,08,03,11,51,30.20
2017,08,03,11,52,30.20
2017,08,03,11,53,30.20
2017,08,03,11,54,30.30
2017,08,03,11,55,30.30
2017,08,03,11,56,30.40
2017,08,03,11,57,30.50
2017,08,03,11,58,30.60
2017,08,03,11,59,30.70
2017,08,03,12,00,30.70
2017,08,03,12,01,30.70
2017,08,03,12,02,30.80
2017,08,03,12,03,30.80
2017,08,03,12,04,30.80
2017,08,03,12,05,30.80
2017,08,03,12,06,30.90
2017,08,03,12,07,31.00
2017,08,03,12,08,31.00
2017,08,03,12,09,31.10
2017,08,03,12,10,31.10
2017,08,03,12,11,31.20
2017,08,03,12,12,31.20
2017,08,03,12,13,31.20
2017,08,03,12,14,31.20
2017,08,03,12,15,31.20
2017,08,03,12,16,31.20
2017,08,03,12,17,31.70
2017,08,03,12,18,31.80
2017,08,03,12,19,31.80
2017,08,03,12,20,31.80
2017,08,03,12,21,31.80
2017,08,03,12,22,31.80
2017,08,03,12,23,31.80
2017,08,03,12,24,31.80
2017,08,03,12,25,31.90
2017,08,03,12,26,31.90
2017,08,03,12,27,32.00
2017,08,03,12,28,32.00
2017,08,03,12,29,32.10
2017,08,03,12,30,32.20
2017,08,03,12,31,32.30
2017,08,03,12,32,32.30
2017,08,03,12,33,32.40
2017,08,03,12,34,32.50
2017,08,03,12,35,32.50
2017,08,03,12,36,32.60
2017,08,03,12,37,32.60
2017,08,03,12,38,32.50
2017,08,03,12,39,32.50
2017,08,03,12,40,32.40
2017,08,03,12,41,32.40
2017,08,03,12,42,32.30
2017,08,03,12,43,32.30
2017,08,03,12,44,32.30
2017,08,03,12,45,32.30
2017,08,03,12,46,32.30
2017,08,03,12,47,32.30
2017,08,03,12,48,32.30
2017,08,03,12,49,32.40
2017,08,03,12,50,32.50
2017,08,03,12,51,32.60
2017,08,03,12,52,32.60
2017,08,03,12,53,32.60
2017,08,03,12,54,32.70
2017,08,03,12,55,32.80
2017,08,03,12,56,32.90
2017,08,03,12,57,33.00
2017,08,03,12,58,33.10
2017,08,03,12,59,33.10
2017,08,03,13,00,33.10
2017,08,03,13,01,33.00
2017,08,03,13,02,32.90
2017,08,03,13,03,33.00
2017,08,03,13,04,33.00
2017,08,03,13,05,33.10
2017,08,03,13,06,33.20
2017,08,03,13,07,33.20
2017,08,03,13,08,33.30
2017,08,03,13,09,33.40
2017,08,03,13,10,33.40
2017,08,03,13,11,33.50
2017,08,03,13,12,33.60
2017,08,03,13,13,33.60
2017,08,03,13,14,33.60
2017,08,03,13,15,33.60
2017,08,03,13,16,33.70
2017,08,03,13,17,33.70
2017,08,03,13,18,33.70
2017,08,03,13,19,33.80
2017,08,03,13,20,33.80
2017,08,03,13,21,33.90
2017,08,03,13,22,33.90
2017,08,03,13,23,34.00
2017,08,03,13,24,34.00
2017,08,03,13,25,34.10
2017,08,03,13,26,34.10
2017,08,03,13,27,34.10
2017,08,03,13,28,34.10
2017,08,03,13,29,34.10
2017,08,03,13,30,34.10
2017,08,03,13,31,34.10
2017,08,03,13,32,34.10
2017,08,03,13,33,34.20
2017,08,03,13,34,34.20
2017,08,03,13,35,34.10
2017,08,03,13,36,34.00
2017,08,03,13,37,34.00
2017,08,03,13,38,33.90
2017,08,03,13,39,33.80
2017,08,03,13,40,33.80
2017,08,03,13,41,33.70
2017,08,03,13,42,33.70
2017,08,03,13,43,33.70
2017,08,03,13,44,33.70
2017,08,03,13,45,33.80
2017,08,03,13,46,33.90
2017,08,03,13,47,33.90
2017,08,03,13,48,34.00
2017,08,03,13,49,34.00
2017,08,03,13,50,34.00
2017,08,03,13,51,34.10
2017,08,03,13,52,34.10
2017,08,03,13,53,34.20
2017,08,03,13,54,34.20
2017,08,03,13,55,34.20
2017,08,03,13,56,34.20
2017,08,03,13,57,34.10
2017,08,03,13,58,34.10
2017,08,03,13,59,34.20
2017,08,03,14,00,34.30
2017,08,03,14,01,34.30
2017,08,03,14,02,34.40
2017,08,03,14,03,34.40
2017,08,03,14,04,34.40
2017,08,03,14,05,34.40
2017,08,03,14,06,34.50
2017,08,03,14,07,34.50
2017,08,03,14,08,34.50
2017,08,03,14,09,34.50
2017,08,03,14,10,34.50
2017,08,03,14,11,34.50
2017,08,03,14,12,34.60
2017,08,03,14,13,34.70
2017,08,03,14,14,34.70
2017,08,03,14,15,34.70
2017,08,03,14,16,34.80
2017,08,03,14,17,34.80
2017,08,03,14,18,34.80
2017,08,03,14,19,34.80
2017,08,03,14,20,34.70
2017,08,03,14,21,34.70
2017,08,03,14,22,34.70
2017,08,03,14,23,34.70
2017,08,03,14,24,34.70
2017,08,03,14,25,34.70
2017,08,03,14,26,34.80
2017,08,03,14,27,34.90
2017,08,03,14,28,34.90
2017,08,03,14,29,35.00
2017,08,03,14,30,35.10
2017,08,03,14,31,35.20
2017,08,03,14,32,35.20
2017,08,03,14,33,35.20
2017,08,03,14,34,35.30
2017,08,03,14,35,35.30
2017,08,03,14,36,35.30
2017,08,03,14,37,35.30
2017,08,03,14,38,35.30
2017,08,03,14,39,35.30
2017,08,03,14,40,35.30
2017,08,03,14,41,35.30
2017,08,03,14,42,35.30
2017,08,03,14,43,35.40
2017,08,03,14,44,35.40
2017,08,03,14,45,35.40
2017,08,03,14,46,35.40
2017,08,03,14,47,35.40
2017,08,03,14,48,35.40
2017,08,03,14,49,35.40
2017,08,03,14,50,35.50
2017,08,03,14,51,35.60
2017,08,03,14,52,35.60
2017,08,03,14,53,35.60
2017,08,03,14,54,35.60
2017,08,03,14,55,35.60
2017,08,03,14,56,35.60
2017,08,03,14,57,35.60
2017,08,03,14,58,35.70
2017,08,03,14,59,35.70
2017,08,03,15,00,35.70
2017,08,03,15,01,35.70
2017,08,03,15,02,35.70
2017,08,03,15,03,35.70
2017,08,03,15,04,35.70
2017,08,03,15,05,35.70
2017,08,03,15,06,35.70
2017,08,03,15,07,35.70
2017,08,03,15,08,35.80
2017,08,03,15,09,35.80
2017,08,03,15,10,35.90
2017,08,03,15,11,35.90
2017,08,03,15,12,35.90
2017,08,03,15,13,35.90
2017,08,03,15,14,35.80
2017,08,03,15,15,35.80
2017,08,03,15,16,35.80
2017,08,03,15,17,35.90
2017,08,03,15,18,35.90
2017,08,03,15,19,36.00
2017,08,03,15,20,36.10
2017,08,03,15,21,36.20
2017,08,03,15,22,36.30
2017,08,03,15,23,36.30
2017,08,03,15,24,36.20
2017,08,03,15,25,36.20
2017,08,03,15,26,36.10
2017,08,03,15,27,36.10
2017,08,03,15,28,36.10
2017,08,03,15,29,36.20
2017,08,03,15,30,36.10
2017,08,03,15,31,36.10
2017,08,03,15,32,36.10
2017,08,03,15,33,36.00
2017,08,03,15,34,36.00
2017,08,03,15,35,36.00
2017,08,03,15,36,36.00
2017,08,03,15,37,36.10
2017,08,03,15,38,36.10
2017,08,03,15,39,36.10
2017,08,03,15,40,36.20
2017,08,03,15,41,36.20
2017,08,03,15,42,36.30
2017,08,03,15,43,36.30
2017,08,03,15,44,36.30
2017,08,03,15,45,36.30
2017,08,03,15,46,36.30
2017,08,03,15,47,36.30
2017,08,03,15,48,36.40
2017,08,03,15,49,36.40
2017,08,03,15,50,36.50
2017,08,03,15,51,36.50
2017,08,03,15,52,36.40
2017,08,03,15,53,36.40
2017,08,03,15,54,36.30
2017,08,03,15,55,36.30
2017,08,03,15,56,36.30
2017,08,03,15,57,36.30
2017,08,03,15,58,36.30
2017,08,03,15,59,36.40
2017,08,03,16,00,36.40
2017,08,03,16,01,36.40
2017,08,03,16,02,36.40
2017,08,03,16,03,36.40
2017,08,03,16,04,36.40
2017,08,03,16,05,36.30
2017,08,03,16,06,36.30
2017,08,03,16,07,36.30
2017,08,03,16,08,36.30
2017,08,03,16,09,36.20
2017,08,03,16,10,36.20
2017,08,03,16,11,36.00
2017,08,03,16,12,35.90
2017,08,03,16,13,35.80
2017,08,03,16,14,35.70
2017,08,03,16,15,35.60
2017,08,03,16,16,35.60
2017,08,03,16,17,35.70
2017,08,03,16,18,35.70
2017,08,03,16,19,35.80
2017,08,03,16,20,35.80
2017,08,03,16,21,35.80
2017,08,03,16,22,35.90
2017,08,03,16,23,36.00
2017,08,03,16,24,36.00
2017,08,03,16,25,35.80
2017,08,03,16,26,35.80
2017,08,03,16,27,35.80
2017,08,03,16,28,35.80
2017,08,03,16,29,35.80
2017,08,03,16,30,35.80
2017,08,03,16,31,35.90
2017,08,03,16,32,35.90
2017,08,03,16,33,35.90
2017,08,03,16,34,35.90
2017,08,03,16,35,35.90
2017,08,03,16,36,35.90
2017,08,03,16,37,35.90
2017,08,03,16,38,35.90
2017,08,03,16,39,35.90
2017,08,03,16,40,35.90
2017,08,03,16,41,35.80
2017,08,03,16,42,35.80
2017,08,03,16,43,35.80
2017,08,03,16,44,35.80
2017,08,03,16,45,35.80
2017,08,03,16,46,35.70
2017,08,03,16,47,35.60
2017,08,03,16,48,35.60
2017,08,03,16,49,35.60
2017,08,03,16,50,35.50
2017,08,03,16,51,35.50
2017,08,03,16,52,35.50
2017,08,03,16,53,35.40
2017,08,03,16,54,35.40
2017,08,03,16,55,35.30
2017,08,03,16,56,35.30
2017,08,03,16,57,35.20
2017,08,03,16,58,35.20
2017,08,03,16,59,35.20
2017,08,03,17,00,35.20
2017,08,03,17,01,35.30
2017,08,03,17,02,35.30
2017,08,03,17,03,35.30
2017,08,03,17,04,35.20
2017,08,03,17,05,35.20
2017,08,03,17,06,35.20
2017,08,03,17,07,35.20
2017,08,03,17,08,35.20
2017,08,03,17,09,35.30
2017,08,03,17,10,35.30
2017,08,03,17,11,35.30
2017,08,03,17,12,35.40
2017,08,03,17,13,35.40
2017,08,03,17,14,35.40
2017,08,03,17,15,35.40
2017,08,03,17,16,35.40
2017,08,03,17,17,35.40
2017,08,03,17,18,35.40
2017,08,03,17,19,35.30